Wind_Speed
2 2 2 2 3 3 3 3 3 3 3 3 4 4 4 4 5 5 5 5 5 5 6 6 6 6 6 6 6 6 6 7 7 8 7 7 6 6 6 6 6 6 5 5 5 6 6 6 5
2 2 2 3 3 3 3 2 2 3 2 2 3 4 4 5 5 5 5 5 6 6 6 6 6 7 7 7 8 8 8 8 8 8 8 8 8 8 7 8 7 7 7 6 6 7 6 7 7
2 2 2 3 3 3 3 2 2 2 2 2 2 3 4 4 4 5 5 5 5 6 7 7 7 7 8 9 9 8 8 8 9 9 10 9 9 9 9 8 8 7 7 7 7 7 7 7 7
2 2 3 3 3 3 3 2 1 1 1 2 2 3 3 4 5 5 5 5 5 6 7 7 8 8 9 9 9 9 9 9 9 10 10 10 10 10 10 10 9 8 8 8 8 7 7 8 8
2 3 4 4 3 3 2 2 2 1 2 2 3 3 3 4 4 5 5 5 6 6 7 7 7 9 9 10 10 10 11 10 10 10 11 11 10 10 10 10 10 9 9 9 9 8 9 9 9
3 3 4 4 3 3 2 1 0 0 1 2 2 2 2 3 3 3 4 5 6 6 6 7 8 8 9 10 11 11 11 11 11 10 11 11 11 11 11 10 11 10 10 10 10 10 9 9 10
3 4 4 3 3 3 1 1 0 0 0 1 1 2 1 2 2 3 3 4 5 5 6 6 7 7 8 10 11 11 11 11 11 11 11 11 12 12 11 11 11 11 11 11 11 11 11 10 10
3 4 4 3 2 2 1 1 1 1 1 1 2 1 2 2 2 2 2 3 3 4 5 5 6 6 7 7 8 9 10 11 11 11 11 11 12 12 12 12 12 12 12 11 11 11 11 11 11
4 4 3 2 2 2 2 1 2 2 2 2 2 2 2 2 2 1 1 2 3 3 4 5 5 5 5 6 6 7 9 9 10 11 11 11 11 11 11 12 12 12 13 13 12 12 12 12 12
4 4 3 2 2 2 2 2 2 2 2 2 3 3 2 2 2 2 2 2 3 3 3 4 4 4 4 4 5 6 7 8 9 10 10 11 11 10 10 11 11 11 12 12 13 12 12 12 12
4 3 3 2 2 2 2 2 2 3 3 3 3 3 2 2 2 3 3 3 3 3 3 3 4 4 4 5 5 5 6 7 8 8 9 9 10 10 11 10 10 10 11 11 12 13 12 12 12
4 3 3 3 3 3 3 3 3 3 3 3 3 3 3 3 3 3 4 4 4 4 4 3 3 4 4 4 5 5 5 6 7 7 8 8 9 10 10 9 9 10 10 11 11 11 12 13 13
4 4 4 3 3 3 4 4 4 3 3 4 4 5 5 4 4 4 4 4 4 4 4 4 4 4 4 4 5 5 6 6 7 7 8 8 9 9 9 9 9 10 10 11 11 11 11 11 12
6 5 5 4 3 3 4 4 4 4 4 5 5 5 5 5 5 5 5 5 4 4 4 4 4 5 5 5 5 5 6 7 7 8 8 8 9 10 10 10 10 10 10 10 10 11 11 11 11
6 6 5 5 4 3 4 5 4 4 5 6 6 6 6 6 5 5 5 5 4 4 4 5 5 5 5 5 5 5 5 6 7 7 8 8 8 9 10 10 11 11 11 11 11 10 11 11 11
6 6 6 5 5 4 5 5 5 5 5 6 6 6 6 5 5 5 5 5 5 5 5 5 5 5 5 5 5 5 6 6 7 7 7 7 7 8 8 9 10 10 10 11 11 10 10 11 11
7 6 6 6 6 5 6 6 6 5 5 6 6 6 6 5 5 5 5 5 6 5 5 5 5 5 5 5 6 6 6 6 7 7 7 7 8 8 8 9 9 9 9 10 10 9 9 10 10
7 8 7 7 6 6 6 6 6 6 6 7 6 6 6 6 5 5 5 6 6 6 6 6 5 5 6 6 6 7 7 7 7 8 8 8 8 8 9 9 9 9 9 10 9 9 10 10 10
8 8 8 8 7 8 7 6 6 6 6 6 6 6 7 6 6 6 6 6 6 6 7 7 7 6 6 7 7 7 8 8 8 8 9 9 9 9 9 9 9 9 9 9 9 9 10 10 10
9 9 8 8 7 7 7 7 7 8 6 6 7 7 7 7 8 8 7 8 7 7 8 8 8 7 7 7 8 8 8 9 9 9 9 10 9 10 10 10 10 10 10 10 10 10 10 11 11
9 9 8 8 8 8 7 7 8 7 7 7 7 7 7 7 8 9 9 8 8 8 8 8 9 9 9 9 9 9 9 9 10 10 10 10 11 11 11 11 12 12 12 12 11 11 11 11 11
9 9 9 9 9 8 8 7 7 7 7 7 7 7 7 8 9 9 9 9 9 9 9 9 9 9 10 10 10 10 10 10 11 11 11 11 12 12 13 13 13 13 13 13 13 12 12 12 13
9 9 10 10 10 9 9 8 8 8 8 8 8 7 8 9 9 9 9 9 10 10 10 10 10 11 11 11 10 10 11 11 12 12 12 12 13 13 13 14 14 14 14 14 14 13 13 13 13
10 10 11 11 11 11 10 9 8 9 8 8 8 8 8 9 9 9 9 10 11 11 11 12 12 12 11 11 12 12 12 12 13 13 13 13 14 14 14 14 14 15 15 15 14 14 14 14 14
12 12 12 12 13 12 11 10 9 8 9 9 9 9 9 10 10 10 10 11 11 11 12 12 13 13 13 13 13 13 13 13 13 13 14 14 15 15 15 15 15 15 15 16 16 15 15 15 15
13 13 13 13 13 13 13 11 10 9 9 10 10 10 10 11 11 11 11 12 12 12 12 13 13 14 14 14 14 15 15 14 15 15 15 15 15 15 16 16 16 16 16 16 16 16 16 17 17
14 14 14 15 14 14 14 12 11 10 10 10 11 11 11 12 12 12 13 13 14 14 14 14 14 15 15 15 16 16 16 16 16 17 17 17 16 16 16 16 16 16 17 17 17 17 17 17 18
16 15 15 15 16 15 15 14 13 12 12 11 11 12 12 12 13 14 15 15 16 16 16 16 16 16 17 17 17 18 18 17 17 18 18 17 17 17 16 16 17 17 18 18 18 18 18 19 19
16 16 16 16 16 16 15 14 14 13 13 13 13 13 13 13 14 15 15 16 17 18 18 18 18 19 19 19 19 20 20 19 19 19 18 18 17 17 16 17 17 18 18 19 19 19 19 19 20
18 17 16 17 17 17 18 16 15 15 15 15 16 16 16 16 16 17 17 18 18 19 20 20 20 21 21 21 21 21 21 20 21 20 19 19 19 18 18 17 18 19 19 20 20 20 20 20 21
Wind_Direction
221 213 206 213 225 224 221 232 239 247 255 246 232 219 225 234 231 230 228 229 223 226 229 232 229 228 227 230 235 237 240 235 234 235 236 236 239 240 239 236 233 234 237 239 235 229 225 221 224
230 218 212 222 233 245 230 231 236 246 245 241 229 224 229 233 232 231 228 235 232 232 236 238 237 236 234 238 239 243 244 241 239 239 238 240 242 241 242 244 243 242 243 246 247 241 234 230 233
234 229 240 241 241 248 243 229 227 238 234 227 222 225 234 235 232 233 236 241 241 239 242 243 242 242 243 244 246 247 245 242 243 241 241 245 247 243 243 247 248 248 248 249 249 247 242 237 237
247 244 246 250 246 243 234 230 231 226 236 235 236 239 238 235 235 237 239 241 245 246 247 249 245 243 244 246 249 250 247 246 245 242 242 245 248 247 245 248 251 253 253 253 253 255 252 244 241
255 250 253 251 251 239 226 239 245 233 232 236 237 245 245 234 234 240 244 243 248 252 252 252 250 249 247 248 249 248 248 248 246 246 244 243 245 247 247 249 251 254 256 256 257 257 257 250 247
246 251 258 257 252 240 236 258 9 27 254 251 242 250 248 246 246 247 250 246 249 254 256 255 254 255 255 254 250 247 245 245 246 248 245 242 242 245 248 250 253 256 256 258 259 258 259 256 254
241 259 259 262 263 258 258 250 8 48 262 269 259 264 266 256 256 252 255 257 255 256 258 260 260 260 260 256 250 245 243 242 244 247 247 244 243 244 247 251 255 257 257 257 259 259 255 257 258
241 261 261 262 259 267 279 278 282 284 290 289 281 269 262 262 259 260 263 270 265 258 260 263 260 262 259 253 244 240 241 243 245 246 248 249 248 248 249 252 256 257 256 255 256 256 256 257 258
239 249 258 262 273 283 294 286 289 299 303 293 286 283 267 270 261 265 278 274 269 264 263 261 262 260 255 243 238 239 242 244 246 247 249 251 253 254 252 254 257 257 256 256 257 258 258 259 259
236 243 252 268 297 309 304 301 297 295 291 280 282 275 270 269 264 262 264 266 270 272 270 262 258 255 258 253 241 241 243 245 248 248 250 252 254 256 258 259 257 258 256 255 255 256 259 261 259
237 244 253 268 292 294 294 309 303 290 299 302 305 299 293 302 288 278 267 261 253 258 266 271 270 260 252 253 253 249 250 248 249 248 250 252 253 256 260 263 258 258 256 253 255 256 257 260 262
242 249 260 271 275 283 287 298 297 295 296 297 296 292 292 291 292 281 269 268 255 249 253 255 260 268 267 265 261 257 253 251 249 248 251 254 255 257 260 261 257 258 258 254 255 258 259 260 262
251 254 252 259 272 274 281 286 290 284 287 295 298 295 299 294 291 285 276 273 264 252 249 252 252 261 270 272 271 268 260 253 253 255 257 258 261 260 261 258 257 258 257 256 257 260 263 265 265
245 244 245 247 262 278 281 282 281 281 291 296 295 292 292 293 292 285 274 263 264 262 261 261 261 261 265 269 271 270 263 256 255 258 260 260 259 259 260 259 258 258 258 260 262 263 265 267 266
241 243 246 247 253 261 268 272 279 283 289 292 292 288 282 284 279 274 274 267 266 268 271 269 268 268 266 265 263 264 265 264 262 261 263 264 261 257 257 258 259 260 259 261 266 268 267 267 265
244 244 244 248 249 258 264 280 284 286 287 285 285 288 281 279 280 277 272 270 268 273 273 269 266 268 266 263 261 263 264 264 263 263 267 269 266 263 261 261 264 265 264 264 266 266 267 266 264
239 241 246 249 250 258 270 279 279 279 282 284 285 287 279 272 276 278 279 277 272 273 269 268 265 268 269 267 263 263 266 267 265 266 270 273 274 272 268 266 267 269 269 267 265 265 264 262 261
242 241 247 255 254 254 266 273 275 273 274 279 284 285 277 271 269 276 282 280 278 275 267 272 273 271 270 272 271 268 268 271 271 271 271 273 275 275 272 271 268 267 269 268 266 265 261 259 259
246 246 250 254 256 255 260 266 273 276 275 274 276 278 271 270 277 278 282 284 277 271 268 269 269 271 274 275 276 274 273 273 273 272 273 273 275 276 276 275 272 270 270 268 268 265 262 258 256
246 250 254 258 259 264 261 259 266 274 274 270 272 280 273 270 272 278 282 281 275 266 264 266 264 268 271 274 274 274 274 275 273 273 272 274 276 275 274 274 271 271 272 270 268 265 265 259 257
247 251 256 262 265 270 273 268 271 269 270 273 269 278 276 274 271 272 277 277 273 264 262 264 263 264 268 269 270 270 271 272 272 272 272 273 274 274 274 274 272 271 270 269 268 267 267 263 260
253 252 255 261 267 271 272 274 270 269 271 275 273 275 273 274 276 275 277 275 272 268 263 262 263 265 267 267 268 269 270 272 273 274 274 275 275 274 274 272 271 268 268 269 268 268 266 263 260
253 257 257 260 264 267 271 273 269 270 272 274 277 279 276 274 276 275 276 276 276 275 267 264 264 266 264 266 268 269 271 273 273 273 273 274 275 275 274 273 272 270 270 270 270 268 266 265 262
250 258 256 260 264 268 273 271 271 270 270 270 271 273 274 273 274 276 277 278 280 277 271 266 266 264 264 270 273 272 272 273 273 273 272 273 274 273 272 272 272 271 269 269 269 269 266 265 263
250 254 255 257 262 267 270 267 271 275 274 272 272 271 271 270 275 275 275 277 279 277 273 269 268 265 267 269 272 275 275 273 273 274 274 275 274 273 272 272 272 270 269 268 267 268 267 265 264
251 252 254 260 265 264 266 267 272 274 276 276 276 274 272 274 275 274 275 277 278 278 277 275 271 267 269 270 270 272 274 275 275 275 276 276 276 274 273 273 272 271 270 269 268 268 267 266 265
254 252 255 257 261 264 266 271 273 275 277 280 279 275 275 277 277 276 276 276 278 279 278 276 273 270 270 270 271 272 274 274 275 274 275 277 276 275 274 273 272 271 271 271 270 270 267 266 265
255 255 256 255 260 266 266 268 275 276 277 279 280 277 277 276 276 276 277 276 276 277 277 276 274 272 271 271 271 272 272 274 274 274 274 275 275 273 271 271 272 272 272 272 272 272 270 267 267
251 251 253 256 260 264 265 266 273 276 277 279 280 279 278 276 278 277 275 276 276 277 278 276 274 273 271 271 272 272 272 274 276 277 276 275 274 273 273 272 272 272 271 272 272 272 272 269 268
252 254 256 258 261 264 265 266 269 274 278 281 281 280 278 277 277 277 276 276 277 277 277 276 274 272 272 272 271 272 271 272 275 276 275 274 273 273 274 274 273 273 273 272 272 272 272 271 270
Height
5866 5866 5867 5868 5869 5868 5868 5868 5868 5868 5868 5868 5868 5868 5869 5869 5871 5873 5871 5870 5871 5871 5872 5872 5872 5873 5874 5874 5875 5875 5876 5876 5877 5877 5878 5878 5878 5879 5879 5879 5879 5879 5879 5879 5879 5879 5879 5879 5879
5865 5866 5867 5867 5867 5867 5867 5867 5867 5867 5867 5867 5867 5867 5868 5868 5868 5869 5869 5869 5869 5870 5870 5871 5871 5872 5872 5873 5874 5874 5874 5875 5875 5876 5876 5877 5877 5878 5878 5878 5878 5878 5878 5878 5878 5878 5878 5879 5879
5865 5865 5867 5866 5866 5866 5866 5866 5866 5866 5866 5866 5866 5866 5867 5867 5867 5867 5868 5868 5868 5869 5869 5870 5870 5871 5871 5871 5872 5873 5873 5873 5874 5874 5875 5876 5876 5876 5877 5877 5877 5877 5877 5877 5877 5877 5878 5878 5878
5865 5866 5866 5866 5865 5865 5865 5865 5865 5865 5865 5865 5865 5865 5865 5866 5866 5866 5866 5866 5867 5867 5868 5868 5869 5869 5870 5870 5870 5871 5871 5872 5872 5873 5873 5874 5874 5875 5875 5875 5876 5876 5876 5876 5876 5876 5876 5877 5877
5864 5865 5865 5865 5864 5864 5864 5864 5864 5864 5864 5864 5864 5864 5864 5864 5864 5864 5864 5865 5865 5866 5866 5867 5867 5867 5867 5868 5868 5869 5869 5870 5870 5871 5871 5872 5873 5873 5873 5874 5874 5874 5874 5875 5875 5875 5875 5875 5875
5864 5864 5864 5864 5864 5864 5863 5863 5863 5864 5863 5863 5863 5863 5863 5863 5863 5863 5863 5863 5864 5864 5864 5865 5865 5865 5865 5865 5865 5866 5867 5868 5868 5869 5870 5870 5871 5871 5871 5872 5872 5873 5873 5873 5873 5873 5873 5874 5874
5864 5863 5863 5863 5862 5863 5863 5862 5863 5863 5863 5863 5862 5862 5862 5862 5862 5862 5862 5862 5862 5862 5863 5863 5863 5863 5862 5861 5860 5862 5864 5865 5866 5867 5868 5868 5869 5869 5869 5870 5870 5871 5871 5871 5871 5871 5872 5872 5872
5862 5863 5862 5862 5862 5862 5862 5862 5862 5862 5862 5862 5862 5861 5861 5862 5861 5861 5861 5861 5861 5861 5861 5861 5861 5861 5860 5858 5858 5859 5862 5863 5864 5865 5866 5866 5867 5867 5867 5868 5868 5868 5869 5869 5869 5869 5870 5870 5870
5861 5863 5861 5861 5861 5861 5861 5861 5861 5861 5861 5860 5860 5861 5861 5860 5860 5860 5860 5860 5860 5860 5860 5860 5860 5860 5859 5858 5858 5859 5860 5861 5862 5863 5864 5864 5864 5865 5865 5865 5866 5866 5866 5866 5867 5867 5867 5868 5868
5861 5861 5860 5860 5860 5860 5860 5860 5860 5860 5860 5859 5859 5859 5859 5859 5859 5859 5859 5859 5859 5859 5859 5859 5859 5859 5859 5858 5858 5858 5859 5860 5860 5861 5862 5862 5863 5863 5863 5863 5863 5864 5864 5864 5864 5864 5865 5865 5865
5859 5859 5859 5859 5859 5859 5859 5859 5858 5858 5858 5858 5858 5858 5858 5858 5858 5858 5858 5858 5858 5858 5858 5858 5858 5858 5858 5858 5858 5858 5858 5859 5859 5859 5860 5860 5861 5861 5861 5861 5861 5861 5861 5862 5862 5862 5862 5862 5863
5858 5858 5858 5858 5858 5858 5858 5858 5858 5857 5858 5858 5858 5857 5857 5857 5857 5857 5857 5857 5857 5857 5857 5857 5857 5856 5856 5856 5857 5857 5857 5857 5858 5858 5858 5859 5859 5859 5859 5859 5859 5859 5859 5859 5859 5859 5860 5860 5860
5857 5857 5857 5857 5857 5857 5857 5857 5857 5856 5856 5856 5856 5856 5856 5856 5856 5856 5856 5856 5856 5856 5856 5856 5856 5855 5855 5855 5855 5855 5855 5856 5856 5856 5857 5857 5857 5856 5856 5857 5857 5857 5857 5857 5857 5857 5857 5857 5857
5855 5855 5856 5856 5856 5856 5856 5856 5855 5855 5855 5855 5855 5854 5854 5854 5854 5854 5854 5854 5854 5854 5854 5854 5854 5854 5854 5854 5854 5854 5854 5854 5854 5854 5854 5855 5854 5854 5854 5854 5854 5854 5854 5854 5854 5854 5854 5855 5855
5854 5854 5854 5854 5854 5854 5854 5854 5854 5854 5853 5853 5853 5853 5853 5852 5853 5852 5852 5852 5852 5853 5853 5853 5853 5853 5852 5852 5852 5852 5852 5852 5852 5852 5852 5852 5852 5852 5852 5852 5852 5852 5852 5852 5852 5852 5851 5852 5852
5852 5852 5853 5853 5853 5853 5854 5853 5852 5852 5852 5851 5851 5851 5850 5851 5851 5851 5850 5851 5851 5851 5851 5851 5851 5851 5851 5851 5851 5851 5850 5850 5850 5850 5850 5850 5850 5850 5849 5849 5849 5849 5849 5849 5849 5849 5849 5849 5849
5850 5850 5850 5851 5851 5851 5851 5851 5851 5850 5850 5849 5849 5849 5849 5849 5849 5849 5849 5849 5849 5849 5849 5849 5849 5849 5849 5849 5849 5849 5849 5848 5848 5848 5848 5847 5847 5847 5847 5847 5846 5846 5846 5846 5846 5846 5846 5846 5846
5848 5848 5848 5849 5849 5849 5849 5849 5848 5848 5848 5848 5847 5847 5847 5847 5848 5848 5848 5847 5847 5847 5847 5847 5847 5847 5847 5847 5847 5847 5846 5846 5846 5846 5845 5845 5845 5845 5844 5844 5844 5844 5844 5844 5843 5843 5843 5843 5843
5845 5846 5846 5847 5846 5846 5846 5846 5846 5846 5846 5845 5845 5845 5845 5845 5845 5845 5845 5845 5845 5845 5845 5845 5845 5845 5845 5845 5844 5844 5844 5844 5843 5843 5843 5842 5842 5842 5842 5841 5841 5841 5841 5841 5841 5841 5841 5840 5841
5843 5844 5844 5844 5844 5844 5844 5844 5844 5844 5843 5843 5843 5843 5843 5843 5843 5843 5843 5843 5843 5843 5843 5843 5843 5842 5842 5842 5842 5842 5842 5841 5841 5841 5840 5840 5839 5839 5839 5838 5838 5838 5838 5838 5838 5838 5838 5838 5838
5841 5842 5842 5842 5842 5841 5842 5842 5842 5842 5841 5841 5841 5840 5840 5840 5841 5841 5841 5840 5840 5840 5840 5840 5840 5840 5840 5840 5839 5839 5839 5839 5839 5838 5837 5837 5836 5836 5836 5836 5835 5835 5835 5835 5835 5835 5834 5834 5834
5839 5839 5839 5839 5840 5840 5840 5840 5840 5839 5839 5838 5838 5838 5838 5838 5838 5838 5838 5838 5837 5837 5837 5837 5837 5837 5837 5837 5836 5836 5836 5836 5835 5835 5835 5834 5833 5833 5832 5832 5832 5832 5832 5831 5831 5831 5831 5831 5831
5837 5837 5837 5837 5837 5838 5837 5838 5838 5837 5836 5836 5836 5836 5835 5835 5835 5835 5835 5834 5834 5834 5834 5834 5834 5834 5834 5833 5833 5833 5833 5833 5832 5832 5831 5831 5830 5829 5829 5828 5828 5828 5828 5827 5827 5827 5827 5827 5827
5833 5834 5834 5834 5834 5835 5835 5834 5835 5834 5834 5834 5833 5833 5833 5832 5832 5832 5832 5831 5831 5831 5830 5830 5830 5830 5830 5830 5830 5829 5829 5829 5829 5828 5827 5827 5826 5825 5825 5824 5824 5823 5823 5823 5823 5823 5823 5823 5824
5830 5831 5831 5831 5831 5831 5831 5831 5832 5831 5831 5830 5830 5830 5830 5829 5829 5829 5828 5828 5828 5827 5827 5826 5826 5826 5826 5826 5826 5825 5825 5825 5824 5824 5823 5822 5822 5821 5820 5820 5819 5819 5819 5819 5819 5819 5819 5819 5819
5827 5827 5828 5828 5828 5828 5827 5827 5829 5828 5827 5827 5827 5826 5826 5826 5826 5825 5825 5825 5825 5824 5823 5823 5823 5823 5823 5822 5822 5821 5820 5820 5820 5819 5818 5818 5817 5816 5816 5815 5815 5814 5814 5814 5814 5814 5814 5814 5814
5823 5823 5824 5824 5824 5824 5823 5824 5824 5824 5824 5823 5823 5822 5822 5822 5822 5821 5821 5821 5821 5820 5819 5819 5819 5819 5818 5818 5818 5817 5816 5815 5815 5814 5813 5812 5812 5811 5810 5810 5810 5809 5809 5809 5809 5809 5809 5809 5809
5819 5819 5819 5820 5819 5819 5820 5820 5821 5820 5820 5820 5819 5819 5818 5818 5818 5817 5817 5816 5816 5815 5815 5814 5814 5814 5814 5813 5813 5812 5811 5810 5810 5809 5808 5807 5806 5806 5805 5805 5805 5804 5804 5804 5804 5804 5804 5804 5804
5815 5815 5814 5815 5815 5815 5815 5818 5817 5816 5816 5816 5815 5814 5814 5813 5813 5813 5812 5812 5811 5810 5810 5809 5809 5808 5808 5808 5807 5807 5806 5805 5804 5803 5802 5802 5801 5800 5800 5799 5799 5799 5799 5799 5798 5798 5798 5798 5799
5810 5810 5810 5811 5811 5811 5810 5815 5812 5812 5811 5811 5810 5809 5809 5808 5808 5807 5807 5806 5806 5805 5805 5804 5803 5803 5802 5801 5801 5801 5800 5799 5798 5797 5796 5796 5795 5795 5794 5794 5793 5793 5793 5793 5793 5793 5793 5793 5793